map of YBB home
Great Circle Mapper logo
YBB - Airport
Location
City:  Kugaaruk, Kitikmeot, Nunavut, Canada
Near (Alt.):Pelly Bay
ICAO / IATA:CYBB / YBB

Details
Type:Airport (Airfield)
Latitude:6832'04"N (68.534444)
Longitude:8948'29"W (-89.808055)
Datum:WGS 1984
Elevation:56 ft (17 m)
Runways:1
Longest:5000 × 100 ft (1524 × 30.5 m)

Time
Time Zone:UTC-6 (DST-5)
Local Time:

Weather
METAR:CYBB 222300Z 22010G15KT 15SM SCT030 BKN090 M14/M17 A3018 RMK SC2AC2 -14.0/-20.5/TR/20/TRAVCE LOOSE LAST OB/NEXT 231200Z SLP224
TAF:CYBB 221838Z 2219/2223 24012KT P6SM SCT006 BKN020
TEMPO 2219/2221 FEW006 SCT020
FM222100 26010KT P6SM FEW020
RMK NXT FCST WILL BE ISSUED AT 231345Z

Related Locations
Nearby:
Farthest:YWKS: 11859 mi / 19085 km
Wilkins Runway (Casey), Upper Peterson Glacier, AQ

Find:

   beyond  
but within

Other Information
Maps:
NOTAMs:
Links:
Sources:

  
flag of Canada
flag of Nunavut
  

Airport Diagram

Airport diagram for YBB

Airport diagram PDF

Sectional Chart

Flight Planning
at skyvector.com

Satellite Image

Google Maps Satellite View

 

Copyright © 2004-2014 Karl L. Swartz. All rights reserved.
The Great Circle Mapper name and logo are trademarks of the Great Circle Mapper.
All other trademarks mentioned herein belong to their respective owners.
Please see credits for attibutions and further copyright information.

  Follow gcmap on Facebook Follow gcmap on Twitter

hCard Microformat

Geo Microformat